User: anonymous   Login
Location: Unspecified
(0.0000°N, 0.0000°E)
Time: 16:06:03
(UTC+00:00)
Language:

Envisat - Orbit

View from above orbital plane
View from above orbital plane
View from above satellite
View from above satellite

Ground track
Ground track

The orbit data is extracted from the following two-line orbital elements,

1 27386U 02009A   18224.88787418 -.00000013 +00000-0 +93689-5 0  9990
2 27386 098.1808 256.2649 0001424 091.5416 017.2456 14.37927333861678
Epoch (UTC): 12 August 2018 21:18:32
Eccentricity: 0.0001424
inclination: 98.1808°
perigee height: 764 km
apogee height: 766 km
right ascension of ascending node: 256.2649°
argument of perigee: 91.5416°
revolutions per day: 14.37927333
mean anomaly at epoch: 17.2456°
orbit number at epoch: 86167

The dashed part of the orbit path shows where the satellite is in the earth's shadow,  

DLR